Weather History for Ogallala, NE

Change the Weather History Date:

Tuesday, April 15, 2014

  Actual Average Record
Temperature  
Mean Temperature 42 °F -  
Max Temperature 68 °F 63 °F 88 °F (1985)
Min Temperature 18 °F 33 °F 18 °F (2014)
Degree Days  
Heating Degree Days 22    
Moisture  
Dew Point 21 °F    
Average Humidity 50    
Maximum Humidity 91    
Minimum Humidity 14    
Precipitation  
Precipitation 0.00 in - - ()
Sea Level Pressure  
Sea Level Pressure 29.85 in    
Wind  
Wind Speed 7 mph (WSW)    
Max Wind Speed 20 mph    
Max Gust Speed 28 mph    
Visibility 10 miles    
Events      
Averages and records for this station are not official NWS values.
T = Trace of Precipitation, MM = Missing Value Source: NWS Daily Summary

Daily Weather History Graph

Daily Weather History Graph

Search for Another Location

Airport:

Trip Planner

Search our weather history database for the weather conditions in past years. The results will help you decide how hot, cold, wet, or windy it might be!

Date:

Astronomy

Apr. 15, 2014 Rise Set
Actual Time 6:07 AM MDT 7:27 PM MDT
Civil Twilight 5:39 AM MDT 7:55 PM MDT
Nautical Twilight 5:04 AM MDT 8:30 PM MDT
Astronomical Twilight 4:28 AM MDT 9:06 PM MDT
Moon 8:10 PM MDT (4/15) 6:16 AM MDT (4/15)
Length of Visible Light 14h 16m
Length of Day
13h 19m
Full, 100% of the Moon is Illuminated
Apr 15
Full
Apr 22
Last Quarter
Apr 29
New
May 6
First Quarter
May 14
Full

Hourly Weather History & Observations

Time (MDT) Temp. Windchill Dew Point Humidity Pressure Visibility Wind Dir Wind Speed Gust Speed Precip Events Conditions
12:15 AM 22.6 °F 18.0 °F 18.7 °F 85% 30.13 in 10.0 mi NW 3.5 mph - N/A   Clear
12:35 AM 20.8 °F 13.2 °F 17.6 °F 87% 30.13 in 10.0 mi WSW 5.8 mph - N/A   Clear
12:55 AM 21.9 °F 12.5 °F 18.9 °F 88% 30.13 in 10.0 mi West 8.1 mph - N/A   Clear
1:15 AM 21.7 °F 17.0 °F 18.9 °F 89% 30.12 in 10.0 mi WSW 3.5 mph - N/A   Clear
1:35 AM 22.3 °F - 18.9 °F 87% 30.12 in 10.0 mi Calm Calm - N/A   Clear
1:55 AM 21.7 °F - 18.3 °F 87% 30.11 in 10.0 mi Calm Calm - N/A   Clear
2:15 AM 21.7 °F - 18.5 °F 87% 30.10 in 10.0 mi Calm Calm - N/A   Clear
2:35 AM 20.1 °F - 17.1 °F 88% 30.09 in 10.0 mi Calm Calm - N/A   Clear
2:55 AM 20.3 °F 15.4 °F 17.6 °F 89% 30.08 in 10.0 mi West 3.5 mph - N/A   Clear
3:15 AM 20.5 °F 15.6 °F 17.8 °F 89% 30.08 in 10.0 mi WSW 3.5 mph - N/A   Clear
3:35 AM 18.9 °F 13.7 °F 15.8 °F 88% 30.07 in 10.0 mi WSW 3.5 mph - N/A   Clear
3:55 AM 21.0 °F - 18.7 °F 91% 30.07 in 10.0 mi Calm Calm - N/A   Clear
4:15 AM 20.5 °F - 18.1 °F 91% 30.05 in 10.0 mi Calm Calm - N/A   Clear
4:35 AM 20.5 °F - 18.1 °F 91% 30.04 in 10.0 mi Calm Calm - N/A   Clear
4:55 AM 21.2 °F 16.4 °F 18.5 °F 89% 30.03 in 10.0 mi WSW 3.5 mph - N/A   Clear
5:15 AM 19.4 °F 12.8 °F 16.5 °F 89% 30.02 in 10.0 mi WSW 4.6 mph - N/A   Clear
5:35 AM 18.5 °F - 15.6 °F 89% 30.02 in 10.0 mi Calm Calm - N/A   Clear
5:55 AM 19.6 °F - 17.2 °F 91% 30.01 in 10.0 mi Calm Calm - N/A   Clear
6:15 AM 18.7 °F - 16.0 °F 89% 30.00 in 10.0 mi Calm Calm - N/A   Clear
6:35 AM 20.1 °F - 17.4 °F 89% 30.00 in 10.0 mi Calm Calm - N/A   Clear
6:55 AM 21.7 °F 17.0 °F 18.9 °F 89% 30.00 in 10.0 mi West 3.5 mph - N/A   Clear
7:15 AM 24.4 °F 20.1 °F 21.7 °F 89% 29.98 in 10.0 mi West 3.5 mph - N/A   Clear
7:35 AM 28.6 °F 24.8 °F 23.9 °F 83% 29.97 in 10.0 mi WSW 3.5 mph - N/A   Clear
7:55 AM 32.4 °F 25.3 °F 24.8 °F 74% 29.97 in 10.0 mi SW 8.1 mph - N/A   Clear
8:15 AM 34.2 °F 26.8 °F 25.0 °F 69% 29.96 in 10.0 mi SW 9.2 mph - N/A   Clear
8:35 AM 35.8 °F 28.8 °F 25.3 °F 66% 29.95 in 10.0 mi WSW 9.2 mph - N/A   Clear
8:55 AM 38.1 °F 32.3 °F 26.1 °F 62% 29.95 in 10.0 mi WSW 8.1 mph - N/A   Clear
9:15 AM 41.0 °F 35.2 °F 27.0 °F 57% 29.94 in 10.0 mi WSW 9.2 mph - N/A   Clear
9:35 AM 43.3 °F 37.7 °F 27.7 °F 54% 29.93 in 10.0 mi WSW 10.4 mph - N/A   Clear
9:55 AM 46.4 °F 43.5 °F 28.2 °F 49% 29.92 in 10.0 mi WSW 5.8 mph - N/A   Clear
10:35 AM 53.2 °F - 28.2 °F 38% 29.90 in 10.0 mi WSW 9.2 mph - N/A   Clear
10:55 AM 55.4 °F - 26.2 °F 33% 29.89 in 10.0 mi SW 9.2 mph - N/A   Clear
11:35 AM 58.5 °F - 22.1 °F 25% 29.87 in 10.0 mi WSW 18.4 mph 24.2 mph N/A   Clear
12:15 PM 60.4 °F - 22.1 °F 23% 29.85 in 10.0 mi West 12.7 mph 18.4 mph N/A   Clear
12:35 PM 60.4 °F - 20.8 °F 22% 29.83 in 10.0 mi WSW 12.7 mph 17.3 mph N/A   Clear
12:55 PM 63.1 °F - 22.6 °F 21% 29.82 in 10.0 mi WSW 18.4 mph 25.3 mph N/A   Clear
1:15 PM 63.7 °F - 24.3 °F 22% 29.81 in 10.0 mi WSW 19.6 mph 24.2 mph N/A   Clear
1:35 PM 63.3 °F - 23.5 °F 22% 29.80 in 10.0 mi WSW 18.4 mph 24.2 mph N/A   Clear
1:55 PM 63.0 °F - 21.7 °F 21% 29.79 in 10.0 mi WSW 13.8 mph 23.0 mph N/A   Clear
2:15 PM 63.3 °F - 22.8 °F 21% 29.78 in 10.0 mi WSW 12.7 mph 24.2 mph N/A   Clear
2:35 PM 63.5 °F - 22.8 °F 21% 29.77 in 10.0 mi West 15.0 mph 25.3 mph N/A   Clear
2:55 PM 66.7 °F - 21.7 °F 18% 29.75 in 10.0 mi SW 10.4 mph 17.3 mph N/A   Clear
3:15 PM 66.7 °F - 21.6 °F 18% 29.73 in 10.0 mi SW 16.1 mph 25.3 mph N/A   Clear
3:35 PM 67.5 °F - 18.5 °F 15% 29.72 in 10.0 mi West 16.1 mph 27.6 mph N/A   Clear
3:55 PM 67.5 °F - 17.4 °F 15% 29.71 in 10.0 mi SW 11.5 mph 25.3 mph N/A   Clear
4:15 PM 67.3 °F - 17.4 °F 15% 29.69 in 10.0 mi SSW 11.5 mph 24.2 mph N/A   Clear
4:35 PM 67.3 °F - 18.3 °F 15% 29.68 in 10.0 mi WSW 16.1 mph 27.6 mph N/A   Clear
4:55 PM 67.1 °F - 16.0 °F 14% 29.67 in 10.0 mi SW 16.1 mph 21.9 mph N/A   Clear
5:15 PM 67.1 °F - 16.2 °F 14% 29.67 in 10.0 mi SW 17.3 mph 21.9 mph N/A   Clear
5:35 PM 66.9 °F - 16.0 °F 14% 29.66 in 10.0 mi SW 19.6 mph 26.5 mph N/A   Clear
5:55 PM 66.4 °F - 15.6 °F 14% 29.66 in 10.0 mi SW 16.1 mph 25.3 mph N/A   Clear
6:15 PM 65.3 °F - 15.6 °F 15% 29.65 in 10.0 mi SSW 17.3 mph 23.0 mph N/A   Clear
6:35 PM 64.4 °F - 15.4 °F 15% 29.65 in 10.0 mi SSW 11.5 mph 17.3 mph N/A   Clear
6:55 PM 62.1 °F - 18.1 °F 18% 29.65 in 10.0 mi SW 10.4 mph - N/A   Clear
7:15 PM 60.6 °F - 21.0 °F 22% 29.64 in 10.0 mi SW 10.4 mph - N/A   Clear
7:35 PM 58.6 °F - 21.9 °F 24% 29.64 in 10.0 mi SW 9.2 mph - N/A   Clear
7:55 PM 56.8 °F - 22.6 °F 27% 29.64 in 10.0 mi SSW 6.9 mph - N/A   Clear
8:15 PM 53.6 °F - 23.9 °F 32% 29.65 in 10.0 mi SSW 3.5 mph - N/A   Clear
8:35 PM 50.9 °F - 25.7 °F 38% 29.65 in 10.0 mi West 3.5 mph - N/A   Clear
8:55 PM 54.1 °F - 25.3 °F 33% 29.65 in 10.0 mi WSW 10.4 mph - N/A   Clear
9:15 PM 52.5 °F - 26.8 °F 37% 29.65 in 10.0 mi West 10.4 mph - N/A   Scattered Clouds
9:35 PM 50.4 °F - 28.2 °F 42% 29.65 in 10.0 mi West 6.9 mph - N/A   Clear
9:55 PM 52.2 °F - 26.6 °F 37% 29.64 in 10.0 mi SW 11.5 mph 19.6 mph N/A   Clear
10:15 PM 48.4 °F - 28.0 °F 45% 29.62 in 10.0 mi SW 4.6 mph - N/A   Clear
10:35 PM 48.2 °F - 27.1 °F 44% 29.61 in 10.0 mi SSW 13.8 mph - N/A   Clear
10:55 PM 48.2 °F - 26.2 °F 42% 29.61 in 10.0 mi SSW 12.7 mph 19.6 mph N/A   Clear
11:15 PM 48.2 °F - 25.7 °F 42% 29.60 in 10.0 mi SSW 11.5 mph - N/A   Clear
11:35 PM 48.6 °F - 24.8 °F 39% 29.60 in 10.0 mi SW 6.9 mph - N/A   Clear
11:55 PM 49.1 °F - 25.2 °F 39% 29.59 in 10.0 mi SW 6.9 mph - N/A   Scattered Clouds